EHI
0 0 0 0 0 0 0 0 0 0 0 0 0 0 0 0 0 0 0 0 0 0 1 3 5 4 1 1 1 0 0 0 0 0 0 0 0 0 0 0 0 0 0 0
0 0 0 0 0 0 0 0 0 0 0 0 0 0 0 0 0 0 0 0 0 0 1 5 6 4 1 0 0 0 0 0 0 0 0 0 0 0 0 0 0 0 0 0
0 0 0 0 0 0 0 0 0 0 0 0 0 0 0 0 0 0 0 0 0 0 2 6 7 4 1 0 0 0 0 0 0 0 0 0 0 0 0 0 0 0 0 0
0 0 0 0 0 0 0 0 0 0 0 0 0 0 0 0 0 0 0 0 0 0 3 6 7 6 2 0 0 0 0 0 0 0 0 0 0 0 0 0 0 0 0 0
0 0 0 0 0 0 0 0 0 0 0 0 0 0 0 0 0 0 0 0 0 1 3 6 8 8 4 1 0 0 0 0 0 0 0 0 0 0 0 0 1 1 0 0
0 0 0 0 0 0 0 0 0 0 0 0 0 0 0 0 0 0 0 0 1 1 3 6 10 10 7 3 1 0 0 0 0 0 0 0 0 0 0 1 2 2 1 0
0 0 0 0 0 0 0 0 0 0 0 0 0 0 0 0 0 0 0 0 1 2 3 6 11 12 9 6 3 0 0 0 0 0 0 0 0 0 1 2 3 3 1 0
0 0 0 0 0 0 0 0 0 0 0 0 0 0 0 0 0 0 0 0 1 2 3 6 12 13 10 8 5 2 1 0 0 0 0 0 0 0 1 3 3 3 2 1
0 0 0 0 0 0 0 0 0 0 0 0 0 0 0 0 0 0 0 0 0 1 2 5 10 12 11 8 5 3 1 0 0 0 0 0 0 1 2 3 3 2 1 0
0 0 0 0 0 0 0 0 0 0 0 0 0 0 0 0 0 0 0 0 0 0 1 4 7 9 10 8 7 4 2 1 0 0 0 1 1 1 3 3 3 1 0 0
0 0 0 0 0 0 0 0 0 0 0 0 0 0 0 0 0 0 0 0 0 0 1 2 4 6 8 8 8 6 3 1 1 1 1 2 2 3 3 3 2 1 0 0
0 0 0 0 0 0 0 0 0 0 0 0 0 0 0 0 0 0 0 0 0 1 1 1 2 5 6 7 6 5 4 2 1 1 1 3 3 3 3 3 1 0 0 0
0 0 0 0 0 0 0 0 0 0 0 0 0 0 0 0 0 0 0 0 1 2 2 1 1 3 5 5 4 3 3 2 1 1 2 3 3 3 3 2 1 0 0 0
0 0 0 0 0 0 0 0 0 0 0 0 0 0 0 0 0 0 0 0 1 2 2 1 1 1 3 3 3 3 4 4 3 3 3 3 3 3 3 2 1 0 0 0
0 0 0 0 0 0 0 0 0 0 0 0 0 0 0 0 0 0 0 0 0 1 1 2 2 1 1 1 2 3 5 6 5 5 5 4 3 3 3 2 1 0 0 0
0 0 0 0 0 0 0 0 0 0 0 0 0 0 0 0 0 0 0 0 0 0 1 2 3 2 1 1 2 3 4 5 5 5 4 4 3 3 3 1 0 0 0 0
0 0 0 0 0 0 0 0 0 0 0 0 0 0 0 0 0 0 0 0 0 0 0 1 2 3 2 1 1 2 2 2 2 2 2 3 3 3 2 1 1 1 1 0
0 0 0 0 0 0 0 0 0 0 0 0 0 0 0 0 0 0 0 0 0 0 0 0 1 2 2 1 1 2 2 1 0 0 1 2 3 2 1 0 1 2 1 0
0 0 0 0 0 0 0 0 0 0 0 0 0 0 0 0 0 0 0 0 0 0 0 0 0 1 2 2 2 2 2 1 0 0 1 2 2 1 0 0 1 2 1 1
0 0 0 0 0 0 0 0 0 0 0 0 0 0 0 0 0 0 0 0 0 0 0 1 1 1 2 2 1 1 1 0 0 0 0 1 1 0 0 0 1 2 2 2
0 0 0 0 0 0 0 0 0 0 0 0 0 0 0 0 0 0 0 0 0 0 1 2 2 3 3 2 1 0 0 0 0 0 0 0 0 0 0 0 2 2 2 2
0 0 0 0 0 0 0 0 0 0 0 0 0 0 0 0 0 0 0 0 0 0 1 2 3 3 3 2 1 0 0 0 0 0 0 0 0 0 0 1 1 2 2 1
0 0 0 0 0 0 0 0 0 0 0 0 0 0 0 0 0 0 0 0 0 0 1 2 2 2 1 1 0 0 0 0 0 0 0 0 0 0 0 1 1 1 1 1
0 0 0 0 0 0 0 0 0 0 0 0 0 0 0 0 0 0 0 0 0 0 0 1 1 1 0 0 0 0 0 0 0 0 0 0 0 0 0 0 0 0 1 1
0 0 0 0 0 0 0 0 0 0 0 0 0 0 0 0 0 0 0 0 0 0 0 0 0 0 0 0 0 0 0 0 0 0 0 0 0 0 0 0 0 0 0 1
0 0 0 0 0 0 0 0 0 0 0 0 0 0 0 0 0 0 0 0 0 0 0 0 0 0 0 0 0 0 0 0 0 0 0 0 0 0 0 0 0 0 0 1
Wind_Speed
4 3 3 3 3 4 3 2 1 2 1 1 2 2 5 6 5 4 4 5 6 6 7 6 6 5 5 4 5 6 5 4 4 2 2 2 2 2 2 2 3 3 2 3
4 3 3 3 3 4 4 2 0 1 1 2 2 2 4 6 5 4 4 4 6 6 7 7 7 5 5 4 4 5 4 4 4 2 1 1 2 1 2 2 2 3 3 3
4 1 2 4 3 4 4 2 2 2 2 4 3 2 4 6 6 5 4 5 5 6 7 8 7 6 5 5 4 4 4 4 4 3 1 2 2 1 2 2 2 2 2 3
4 3 3 4 3 4 3 1 3 3 4 3 4 2 3 5 6 6 5 4 5 5 6 7 7 7 6 5 4 4 4 4 4 3 2 2 1 1 2 1 1 1 2 2
3 3 4 4 3 4 3 2 4 5 5 5 4 2 2 6 5 5 5 5 5 6 7 7 8 7 7 6 4 3 3 4 3 2 2 1 1 1 1 1 2 2 2 2
5 3 3 3 3 4 4 5 7 7 5 5 5 3 1 3 4 5 6 6 6 6 7 7 8 7 6 6 4 3 3 3 3 3 2 2 2 1 2 2 2 1 1 1
7 6 5 3 5 5 6 4 3 4 4 3 3 2 2 5 5 5 6 6 7 7 7 7 8 7 6 6 5 4 3 3 3 3 3 3 3 2 2 2 2 2 1 1
6 5 6 5 4 3 5 5 3 2 2 1 3 3 5 7 6 5 5 6 6 7 7 7 8 7 7 7 6 5 4 4 4 3 2 2 3 2 1 2 2 2 2 2
3 3 6 6 5 5 4 4 5 6 7 4 1 5 7 7 7 6 5 5 6 6 6 7 8 8 7 7 6 5 5 4 4 4 3 3 2 2 2 1 1 1 2 2
5 3 5 5 6 9 7 5 3 3 3 3 2 3 4 6 6 5 5 5 5 6 6 7 7 7 7 6 6 5 5 4 4 3 3 2 2 2 2 2 2 2 2 2
6 5 5 6 5 5 5 5 4 4 4 3 1 2 4 6 5 6 5 5 4 4 6 6 6 6 6 6 6 5 4 4 4 3 3 3 2 2 2 2 2 2 2 3
4 4 5 6 5 3 5 6 5 4 4 3 3 2 5 5 5 5 5 5 5 5 5 6 6 6 5 5 6 6 6 5 4 4 4 3 3 3 2 2 3 2 3 3
3 4 4 4 5 5 5 5 5 5 5 4 3 2 5 5 4 4 4 4 5 5 5 5 5 5 5 5 5 5 6 6 5 4 4 4 4 3 2 2 2 2 2 2
4 6 6 5 2 2 4 5 5 6 5 5 4 1 2 3 3 3 3 4 5 5 5 5 4 4 4 4 4 5 5 5 5 5 4 3 3 3 3 2 2 2 2 2
5 7 7 7 6 4 6 7 7 8 8 7 5 3 2 1 3 3 3 4 5 4 5 5 4 4 4 4 4 4 4 5 5 5 5 3 3 3 3 3 2 1 1 2
6 7 8 8 7 7 8 8 9 10 9 8 7 5 2 1 3 2 3 4 4 3 3 4 4 4 5 5 4 4 5 5 5 6 5 4 4 4 4 3 3 2 1 2
6 8 7 7 7 8 9 7 7 7 7 6 6 3 1 1 1 2 3 3 3 3 2 3 4 3 3 4 4 4 4 5 5 5 5 5 4 4 4 3 3 2 2 2
8 8 5 7 8 10 3 3 4 4 4 3 3 1 0 1 0 2 3 2 1 2 3 2 2 3 2 3 3 3 4 4 5 5 5 5 5 4 4 4 3 3 2 2
9 7 6 6 8 8 5 2 2 4 4 3 3 1 1 1 1 2 2 1 1 1 1 1 0 2 1 1 3 3 4 4 4 5 5 5 5 5 4 4 3 3 3 2
8 8 7 7 7 6 2 1 1 2 3 1 1 1 1 0 1 1 2 2 2 2 1 1 1 1 2 1 2 3 3 4 4 4 4 4 5 5 5 5 4 3 2 2
9 8 9 9 8 5 2 1 1 3 1 2 2 1 1 2 2 1 2 2 2 2 2 2 2 2 1 1 2 3 2 3 4 4 3 3 4 4 5 4 3 3 3 2
8 7 9 8 9 5 1 0 1 2 3 3 3 2 2 2 2 2 2 2 2 2 2 2 2 2 1 1 2 2 2 2 3 4 4 3 3 4 4 4 3 3 3 3
7 6 3 4 2 1 1 2 3 4 3 3 3 3 3 2 2 1 1 1 1 1 2 2 1 1 1 1 2 1 1 2 3 4 4 3 3 3 3 3 3 2 2 2
6 5 5 5 2 1 2 2 2 3 3 4 3 3 2 2 2 1 0 0 1 1 2 2 1 1 1 1 1 1 2 2 3 3 3 4 4 3 3 3 3 2 2 3
5 5 6 6 4 3 3 3 3 2 3 3 4 3 2 2 2 2 1 1 1 1 1 2 1 1 0 0 1 1 1 1 3 3 3 3 3 4 3 3 2 2 2 2
6 6 6 5 4 4 2 3 4 3 3 3 4 3 3 2 2 2 1 1 1 2 2 2 2 1 1 0 1 1 1 1 2 3 3 2 2 3 3 3 2 2 2 3
Wind_Direction
211 219 230 229 224 270 296 300 48 100 126 204 185 181 159 162 174 174 175 165 162 160 154 150 144 142 137 141 132 128 140 132 111 82 83 87 75 58 54 44 49 40 48 65
210 225 241 250 237 257 263 275 274 117 162 252 213 198 165 162 171 180 184 170 159 153 147 146 146 148 146 140 136 142 143 132 123 124 130 123 108 92 91 52 48 36 40 56
223 211 240 244 235 257 258 284 299 299 263 244 227 227 183 160 160 170 181 166 157 156 155 154 155 153 150 150 152 146 142 136 131 126 90 74 71 62 79 79 63 36 46 49
229 222 246 252 254 260 269 287 287 282 269 256 214 236 185 158 163 168 172 164 156 156 153 152 158 153 155 153 151 150 146 135 124 124 114 124 137 114 107 110 117 97 88 73
236 211 240 252 268 284 286 285 271 268 267 272 246 241 179 153 161 166 167 164 152 154 153 156 160 154 154 148 146 145 141 128 125 132 130 152 124 112 105 101 110 87 88 88
239 217 243 273 257 258 263 255 252 247 256 259 243 213 153 140 139 149 155 158 154 153 155 156 151 146 147 138 138 143 136 135 140 152 163 170 141 127 122 129 117 91 97 91
218 206 197 233 252 225 243 257 251 213 211 226 194 161 107 107 110 124 141 150 156 153 152 151 146 148 148 144 150 154 150 151 161 175 181 173 165 164 157 145 135 133 117 114
232 200 187 198 242 247 246 255 279 299 284 240 173 140 109 103 102 108 124 137 147 148 148 151 151 150 149 152 158 161 165 166 170 177 177 171 166 170 158 156 156 157 148 138
250 198 166 190 225 252 258 259 272 282 290 288 164 120 114 108 114 115 122 129 135 140 148 150 149 151 153 159 163 167 167 164 169 173 177 187 169 155 154 160 145 132 126 134
277 258 190 187 218 233 247 273 281 277 295 282 211 160 141 138 138 131 123 121 129 140 146 143 146 152 157 157 163 170 165 163 167 169 178 161 152 163 159 156 148 128 126 123
261 267 215 189 212 237 223 238 254 268 270 288 334 64 82 130 134 131 127 124 123 133 138 140 144 149 152 157 165 167 163 159 162 167 161 150 153 158 148 148 150 150 148 147
242 262 252 220 195 218 252 260 260 264 275 280 290 96 86 92 104 117 120 119 120 126 127 134 140 144 152 165 170 169 169 165 164 165 160 157 163 168 162 162 168 168 158 161
291 257 255 215 185 194 232 239 255 267 274 268 269 128 108 96 91 94 106 112 114 117 120 124 135 146 154 165 169 170 168 169 167 164 163 170 168 158 160 164 160 167 159 162
278 256 255 263 283 211 245 256 257 259 262 266 264 237 139 120 109 104 106 118 123 127 130 129 135 145 154 166 171 171 166 165 164 160 160 165 160 155 155 142 144 160 168 156
257 259 260 272 286 268 253 255 256 255 257 267 276 281 284 199 145 137 134 129 130 136 138 144 153 160 163 170 173 171 167 165 162 155 155 158 153 147 139 134 137 131 136 133
245 257 263 265 264 260 265 249 244 251 255 257 267 273 291 93 109 135 140 133 131 140 154 153 162 164 167 175 183 179 174 169 161 160 157 153 151 143 140 147 144 135 114 104
237 251 257 259 263 265 255 237 232 238 239 248 258 278 22 60 115 144 130 133 150 152 145 164 169 161 175 181 185 178 173 162 155 156 151 152 152 147 144 143 138 141 139 127
250 259 255 256 254 250 241 204 213 233 238 255 275 301 312 309 241 151 112 118 137 150 153 165 175 162 185 178 165 164 157 158 158 156 152 151 150 147 148 148 152 156 152 155
241 248 254 249 249 253 253 245 219 233 245 248 253 270 291 73 58 123 99 96 89 100 121 116 38 151 161 161 153 153 157 153 154 158 159 156 155 153 152 154 162 165 169 175
230 238 246 252 251 250 247 144 299 249 243 301 236 236 314 171 237 231 81 79 75 49 73 73 52 72 116 120 142 151 157 159 156 156 160 156 160 160 162 166 168 174 175 175
211 221 233 245 248 256 310 279 212 229 315 52 19 15 314 265 288 96 98 93 82 64 65 60 62 57 93 108 132 154 156 169 158 145 146 157 154 161 165 165 168 168 165 168
225 221 227 234 240 243 30 142 230 5 20 27 15 19 11 357 23 59 87 102 100 93 93 82 69 57 41 105 131 142 152 146 141 145 149 156 157 161 158 156 165 166 159 167
230 232 242 242 247 77 73 25 8 5 349 359 10 4 9 11 8 18 67 105 113 121 111 98 81 85 34 82 105 129 120 125 134 144 152 157 156 147 140 144 152 152 149 161
256 261 250 249 241 301 348 352 359 354 350 352 356 353 355 348 338 336 18 115 124 144 129 119 115 106 50 37 84 92 99 123 145 147 153 152 147 139 138 142 148 153 169 180
272 278 266 261 266 290 318 330 326 340 353 346 338 336 325 316 300 291 258 202 169 189 150 133 139 155 164 17 102 99 113 149 163 158 153 158 156 153 150 144 152 167 170 176
258 261 256 262 276 282 297 326 329 331 329 325 323 326 321 303 286 272 236 201 198 194 169 162 168 198 210 211 170 135 148 187 178 165 162 158 155 157 158 154 138 92 136 140